RH
32 32 31 30 30 29 29 29 29 29 30 30 30 30 29 29 28 28 28 28 29 29 30 31 32 32 32 33 33 34 35 36 37 36 36 35 34 33 32 32 32 32 31 30 30 30 30 30 30 29 28 28 28 28 29 30 31 31 27 24 21 21 24 27 27 25 25 26 28 29 31 33 36 38 39 39 38 36 34 30 26 23 21 25 29 26 19 18
34 33 32 32 31 30 30 30 30 30 30 29 29 28 27 27 27 28 28 29 29 30 30 31 31 32 33 34 36 38 40 41 42 42 42 40 38 37 35 34 34 34 34 34 33 33 33 33 33 32 30 29 29 28 28 28 28 29 29 28 25 22 22 24 25 26 27 27 28 29 29 30 31 34 36 38 40 38 36 33 28 23 21 21 25 29 26 20
37 36 34 33 32 31 31 30 29 29 28 27 27 26 26 26 26 27 27 28 29 30 31 32 33 35 37 39 41 42 43 44 44 44 44 43 41 39 38 37 36 36 36 36 36 36 36 37 37 36 35 34 32 31 30 29 27 26 26 28 29 26 23 22 23 25 26 27 28 30 31 31 31 33 32 34 38 39 39 37 32 25 22 21 21 27 30 25
39 36 34 34 34 34 34 33 32 30 30 29 29 29 28 28 28 28 29 30 32 34 36 38 39 40 42 44 44 45 44 45 44 44 44 43 42 41 40 39 39 38 37 37 37 38 39 40 40 40 39 38 36 35 34 32 31 29 27 26 27 27 25 23 23 24 25 26 28 30 32 34 35 34 33 33 33 36 39 38 37 29 23 22 20 23 30 31
39 36 36 37 37 37 38 38 38 36 35 34 32 31 30 30 30 32 33 35 38 39 41 41 41 41 43 44 43 42 43 44 44 44 45 44 44 42 42 41 41 41 39 39 38 37 38 38 39 39 39 38 37 35 34 34 33 33 31 29 26 25 27 26 24 23 25 25 26 29 31 33 36 35 35 35 33 33 36 37 39 34 26 23 22 21 27 34
37 37 38 40 39 38 37 37 38 38 37 36 35 33 32 33 34 36 38 40 41 41 40 39 39 41 42 42 40 41 43 44 45 46 46 44 44 44 44 43 42 42 41 40 38 37 37 36 36 35 35 35 34 33 32 32 33 34 33 31 29 26 27 28 28 25 24 26 26 27 29 31 32 34 34 34 34 34 33 34 36 36 30 24 22 22 23 31
38 39 41 42 41 39 37 36 37 38 38 38 38 35 35 37 39 40 40 40 39 37 36 37 40 41 40 40 40 43 45 47 48 49 48 47 48 48 48 46 45 44 43 42 40 38 37 35 34 33 32 31 31 30 30 30 31 33 33 32 31 29 26 26 29 27 24 25 26 26 27 30 31 32 32 31 33 34 34 33 33 35 32 25 22 22 22 27
40 42 44 46 46 44 41 40 41 41 41 42 42 40 39 40 41 40 38 37 35 33 33 36 41 41 40 41 42 45 47 50 53 54 54 55 55 54 52 50 48 47 46 44 42 41 39 36 34 32 31 31 30 30 30 30 30 32 34 33 32 30 27 25 26 26 24 23 24 27 27 29 30 31 32 31 31 32 34 34 32 33 31 27 21 20 23 25
44 46 47 48 48 48 47 45 45 45 45 47 48 45 42 41 41 39 38 38 37 35 34 36 41 42 43 45 46 48 49 53 57 59 61 62 61 58 54 52 50 48 47 46 44 42 40 38 36 34 33 32 31 31 32 32 32 34 36 35 34 31 29 26 24 24 24 22 22 24 27 28 29 29 31 32 31 29 31 34 33 32 30 27 21 18 20 25
48 48 48 49 49 50 50 49 49 49 49 51 53 50 46 41 39 39 40 42 43 40 38 40 42 44 47 50 53 54 54 58 63 64 66 67 63 60 57 54 51 49 47 45 43 42 40 39 37 35 34 33 33 32 32 33 33 34 35 36 36 33 31 28 24 22 21 22 20 20 23 25 26 27 30 32 32 29 28 30 32 32 30 26 21 18 17 23
49 49 49 51 51 51 53 54 53 53 53 55 56 54 48 41 38 40 43 45 44 43 43 44 46 48 51 54 59 62 62 64 68 69 69 67 64 60 58 56 53 49 47 44 42 41 40 38 37 35 35 33 32 31 31 32 32 31 32 33 34 34 32 29 26 23 21 21 20 19 20 21 22 23 26 29 31 31 28 27 29 30 31 29 23 18 16 20
49 48 49 50 50 51 54 56 55 53 52 56 59 59 56 49 42 39 43 47 47 48 47 48 52 52 54 57 64 70 68 69 73 73 71 68 65 62 59 57 52 48 46 45 43 41 39 38 36 35 35 34 33 32 31 32 32 31 31 32 32 32 32 30 29 28 25 21 19 18 19 20 20 21 22 25 27 30 31 28 27 28 30 31 26 20 17 18
51 47 46 46 47 49 53 57 56 50 48 51 55 56 57 55 50 46 49 56 58 57 53 55 59 57 56 60 70 75 70 73 79 77 74 70 66 65 62 56 50 48 47 46 43 40 38 36 35 35 35 35 34 34 33 33 34 33 33 33 32 31 31 31 30 31 30 26 22 19 19 19 19 19 20 22 25 27 30 30 29 28 28 30 30 24 18 18
52 46 43 42 43 47 52 57 57 52 50 56 61 60 55 52 52 52 59 69 71 65 58 61 66 62 59 66 76 76 71 78 82 77 74 69 64 64 62 54 49 48 46 43 40 37 37 35 35 35 33 33 32 32 32 32 33 32 32 33 32 31 30 30 29 29 28 26 25 24 23 21 19 18 18 19 21 23 26 28 28 28 27 27 30 27 20 18
52 45 42 41 44 48 52 57 60 59 60 71 83 82 74 70 67 66 72 79 75 64 60 68 73 66 64 74 79 74 75 82 81 77 74 66 62 63 60 54 49 47 43 40 38 36 35 34 33 32 30 29 28 28 28 28 29 29 29 31 31 30 29 28 28 27 25 23 23 24 25 25 24 22 20 19 20 22 24 26 27 26 26 26 27 28 23 19
51 44 43 43 47 51 54 57 62 65 67 76 85 83 79 83 88 88 85 77 67 63 68 78 78 69 72 81 79 75 81 83 80 79 74 65 65 65 59 53 48 43 39 38 36 34 33 32 30 29 27 26 25 25 25 25 25 25 26 27 28 28 27 26 27 26 25 23 22 22 23 24 25 25 23 22 22 23 25 25 26 26 24 25 25 26 25 19
51 46 45 45 47 52 55 56 59 64 67 70 73 71 69 73 79 80 75 68 67 72 80 84 78 75 81 82 77 81 86 82 81 79 70 66 68 64 56 50 44 40 39 37 35 33 31 30 28 26 24 23 22 22 21 22 22 22 22 22 23 25 24 22 22 23 23 23 22 22 22 23 25 26 24 23 23 23 24 25 26 26 24 23 24 24 24 19
55 49 47 48 48 51 55 55 57 63 68 71 71 72 74 74 74 74 73 74 77 81 83 82 81 84 86 80 80 87 86 81 81 75 67 68 68 61 54 48 43 41 39 36 34 32 30 27 25 23 22 21 20 20 20 20 20 21 20 20 21 22 21 19 17 18 19 20 20 20 21 24 25 27 26 25 24 23 24 26 26 27 24 23 23 22 23 20
61 54 51 52 50 52 58 57 58 66 73 76 77 79 80 81 80 78 77 78 79 80 82 85 89 89 84 80 85 90 84 82 81 72 67 71 67 59 53 47 43 42 38 35 34 31 27 24 22 22 21 20 20 19 20 20 20 20 20 20 20 20 20 17 15 13 15 17 18 18 19 23 25 26 27 25 25 25 25 27 27 28 26 23 22 21 22 20
65 57 54 55 51 54 61 59 60 68 74 75 76 78 78 80 80 78 77 76 80 86 92 97 95 87 81 83 92 93 85 84 79 70 68 70 65 58 51 46 44 41 38 35 32 26 24 23 21 21 20 21 20 20 20 20 20 20 20 20 20 20 20 17 17 14 13 16 17 16 16 21 24 25 25 24 25 25 25 27 28 29 28 24 22 21 21 20
64 58 56 54 51 57 62 60 62 69 74 72 72 72 72 74 75 78 81 84 93 100 103 101 89 83 85 90 97 94 86 85 76 66 68 68 62 55 49 46 44 40 37 34 27 23 22 23 22 21 21 22 22 21 22 20 21 21 22 23 23 23 23 19 19 17 15 17 18 16 15 18 21 22 23 22 23 24 25 26 27 29 28 26 22 21 21 19
61 59 57 54 54 60 62 63 66 72 78 76 75 75 72 71 72 77 83 91 101 102 99 91 83 88 95 96 99 93 89 88 74 66 70 69 60 51 47 46 43 41 37 30 23 21 22 25 26 24 22 22 22 23 24 23 22 24 24 25 25 25 25 22 20 18 17 18 18 16 15 19 19 19 20 20 20 22 24 25 26 28 28 27 23 20 21 19
57 58 58 56 59 62 64 66 69 77 82 79 79 80 76 73 73 77 80 86 91 90 90 89 90 99 102 102 97 91 94 91 74 68 71 67 57 48 46 46 43 41 36 26 22 22 24 26 27 27 27 24 22 23 25 24 24 26 27 26 26 26 27 26 22 20 18 18 20 17 16 20 20 18 17 17 18 18 21 24 24 27 26 26 24 20 20 19
57 59 60 61 65 67 68 69 72 81 84 81 82 82 78 74 74 77 79 82 85 90 97 99 101 103 104 104 96 93 100 90 74 72 71 64 54 46 46 45 43 42 33 24 24 27 28 27 26 27 27 27 29 29 30 32 33 36 36 30 29 29 28 27 24 20 18 16 17 17 18 21 18 17 17 15 16 17 18 21 23 25 25 25 24 21 20 18
64 66 68 68 71 73 74 74 77 84 86 85 86 85 80 76 76 78 81 88 95 101 104 105 104 102 104 104 95 98 101 85 74 73 68 60 50 46 46 43 45 42 31 25 27 32 32 28 27 27 25 26 29 32 34 35 35 38 39 34 31 30 28 27 25 22 19 16 16 17 19 21 17 15 17 15 15 16 17 18 21 23 23 24 24 21 20 18
76 77 83 83 81 80 81 80 82 87 91 92 91 90 86 80 77 80 89 98 103 104 103 104 103 101 106 104 98 101 95 80 74 71 65 56 48 47 45 43 47 41 30 28 31 35 34 30 31 33 34 35 37 43 44 40 38 39 42 43 42 42 38 32 29 25 22 19 16 15 19 22 20 14 15 15 14 15 15 16 18 21 22 22 23 21 19 18
93 91 97 99 94 89 88 87 85 88 96 97 94 94 91 85 81 89 100 102 102 103 102 104 102 100 104 104 104 101 87 77 74 69 63 53 48 48 45 46 49 41 31 32 36 37 36 36 39 43 50 53 53 60 61 56 57 59 58 59 59 59 54 46 39 32 29 26 17 14 18 23 23 16 12 13 15 17 15 15 16 18 21 21 22 22 19 19
106 104 107 106 98 94 93 89 84 86 94 97 96 97 92 87 88 98 105 101 101 103 103 107 102 96 99 102 103 94 81 77 74 68 60 51 50 48 45 50 52 45 35 35 43 41 38 43 48 55 67 70 65 69 76 76 79 84 82 78 75 71 63 55 49 40 34 30 20 15 20 25 23 16 12 11 13 16 14 14 15 15 19 21 21 22 20 19
110 111 110 103 95 95 95 89 82 83 91 96 98 98 90 87 93 101 101 95 96 102 107 109 98 90 94 95 90 83 78 78 72 66 56 50 52 47 46 52 53 49 40 40 50 47 45 52 57 63 70 75 77 86 98 100 97 96 90 81 78 75 67 58 56 51 42 33 23 17 21 26 22 14 12 12 11 13 13 12 13 13 16 19 20 21 21 20
105 109 107 98 93 96 95 87 80 80 90 97 99 97 89 89 95 94 86 80 85 95 101 101 94 91 91 86 79 76 78 78 71 64 54 50 52 47 48 52 51 54 49 45 51 52 55 64 73 75 69 68 77 88 101 103 97 94 87 74 65 57 52 49 50 51 45 36 28 21 20 25 22 12 9 11 9 10 12 12 12 12 13 17 19 20 21 21
103 105 103 96 93 96 94 84 78 82 92 96 97 95 90 90 89 79 70 67 72 80 83 86 91 91 84 77 74 75 77 76 71 62 52 51 51 47 50 50 49 57 57 49 51 57 68 80 91 92 80 72 72 81 100 109 102 96 93 86 74 60 52 48 47 46 42 40 36 26 22 23 20 12 8 9 10 9 10 12 13 13 12 14 17 19 21 21
105 104 102 97 95 95 88 79 80 88 92 94 96 94 89 84 77 67 59 57 61 67 71 75 80 78 73 72 72 74 78 77 71 60 52 52 50 47 51 49 47 59 64 58 55 64 75 87 101 103 90 79 75 78 91 101 99 93 88 85 82 77 69 58 54 49 41 44 49 37 26 23 20 15 10 8 10 10 10 10 11 13 12 12 14 18 20 21
103 102 100 98 95 90 80 76 82 89 91 93 93 86 77 72 67 60 54 53 56 61 63 66 70 68 67 70 73 77 81 78 70 58 52 53 50 49 53 49 45 55 67 64 61 71 76 80 93 101 95 86 82 83 84 86 88 85 81 79 80 85 84 76 72 66 47 41 51 46 30 24 20 16 13 10 11 11 9 9 10 11 12 11 12 14 17 20
101 104 104 100 93 83 76 75 81 87 89 87 79 68 61 61 61 57 53 53 54 57 59 60 65 66 67 70 74 80 83 79 68 56 53 52 50 51 54 51 43 48 65 67 62 73 79 76 79 86 89 85 85 97 103 99 91 87 88 88 84 85 90 91 88 86 69 47 48 50 38 30 21 16 14 11 12 13 10 10 9 9 11 11 10 12 14 17
102 106 107 100 88 79 75 75 79 83 80 70 59 53 53 56 58 54 52 54 54 56 57 57 61 64 68 72 76 81 84 78 64 54 55 53 51 54 55 51 43 44 65 73 67 74 80 81 81 80 81 82 92 110 113 102 94 98 102 97 87 83 94 103 97 96 90 68 60 61 51 40 29 20 17 11 10 12 11 10 9 8 9 10 10 10 11 14
104 106 105 96 85 76 72 72 74 72 63 54 48 49 53 56 55 50 50 53 53 54 56 57 60 63 68 74 79 84 84 76 61 53 56 55 54 58 56 55 46 42 61 75 77 85 86 86 88 83 80 84 99 111 105 98 101 105 107 102 94 90 100 112 106 105 104 88 83 88 78 62 47 30 20 14 10 9 10 10 9 9 9 9 9 9 9 11
103 103 97 87 76 69 67 68 67 60 52 49 49 52 56 55 50 45 47 52 54 55 56 58 60 63 70 76 81 85 83 73 58 53 57 56 57 61 58 58 51 43 56 68 76 85 85 82 84 82 81 87 102 110 104 105 109 107 106 106 99 94 102 113 110 109 111 98 92 99 100 90 73 49 29 21 15 9 8 8 8 9 8 8 8 8 9 8
97 88 79 72 67 65 66 65 61 55 52 52 54 56 56 52 47 43 45 53 57 58 58 59 61 65 72 76 79 84 82 69 55 53 58 57 60 63 60 60 53 45 54 63 70 78 78 78 79 77 78 83 95 105 102 103 108 105 104 104 98 94 103 113 110 108 111 103 86 83 94 96 84 64 44 32 24 14 8 7 7 8 6 8 8 7 9 7
83 73 67 64 64 65 66 65 61 58 56 54 55 56 54 50 45 43 46 54 58 59 59 60 62 67 72 74 78 84 81 66 54 54 58 59 63 65 62 61 55 48 54 62 69 75 76 78 77 74 75 78 83 88 88 95 105 106 104 105 104 99 103 109 108 105 107 102 83 67 73 84 82 71 54 41 33 22 13 7 5 7 5 6 7 6 7 7
71 66 62 60 61 65 67 65 61 57 52 51 52 52 50 47 45 43 47 54 57 58 60 61 63 69 72 74 80 86 79 64 54 55 59 60 65 66 64 64 57 49 52 62 69 75 77 76 76 75 76 79 80 82 90 100 102 101 103 106 107 105 105 106 105 106 108 104 90 72 64 68 71 67 55 44 36 26 17 10 5 5 5 5 6 6 6 5
62 60 57 57 61 64 63 59 55 51 49 51 51 49 47 46 44 44 48 54 57 58 61 61 65 71 73 76 86 89 78 61 53 55 59 61 64 67 66 66 62 52 49 58 67 74 78 76 77 82 81 81 81 83 95 99 84 82 95 101 103 105 104 104 104 108 110 105 94 82 74 72 69 64 55 45 37 26 18 11 6 4 4 4 5 5 5 5
56 56 55 56 56 54 54 53 52 51 54 56 53 49 45 44 43 43 49 55 57 58 60 62 67 74 77 82 90 88 75 60 54 56 61 64 65 67 68 68 65 58 51 55 63 71 79 80 78 83 83 81 83 87 97 96 79 81 97 101 103 106 106 107 106 107 108 104 96 90 85 80 74 65 52 42 37 30 20 12 7 5 4 4 4 4 5 5
53 54 54 52 47 45 48 51 52 56 60 59 53 47 42 41 42 44 49 54 56 57 59 63 70 79 86 90 91 86 73 60 56 57 62 67 67 67 70 70 69 65 57 55 61 67 76 82 83 91 94 87 85 89 95 95 92 95 100 103 107 106 103 103 99 97 99 100 100 99 92 81 68 52 41 39 39 34 25 15 8 5 4 4 4 4 4 4
49 51 53 49 43 43 46 47 50 58 60 55 48 42 39 40 42 44 48 52 54 55 59 66 76 87 96 96 89 82 72 60 58 59 62 69 70 68 70 71 71 71 64 58 62 67 72 75 78 88 93 89 89 95 98 98 102 102 99 104 109 102 96 97 99 100 99 98 104 107 98 82 64 46 40 46 46 37 27 19 10 5 4 4 4 4 4 4
48 49 52 50 47 46 45 45 50 56 54 47 41 38 37 40 42 43 47 49 52 55 62 73 86 97 104 97 86 80 71 61 59 60 61 67 70 70 70 71 72 74 70 63 64 70 74 73 71 72 76 85 94 100 101 102 104 103 103 108 110 100 91 94 103 109 105 103 109 109 94 77 66 62 63 66 63 49 32 22 12 6 4 4 4 4 4 4
57 55 54 53 52 49 47 48 53 53 46 40 37 36 37 40 41 43 46 47 52 59 70 82 96 107 107 94 84 79 71 63 62 63 63 65 69 71 71 72 74 75 74 69 64 69 75 76 76 72 73 87 100 102 103 105 105 106 106 109 109 101 89 88 97 108 110 108 105 94 78 64 64 76 87 87 80 63 40 24 14 6 4 4 4 4 3 4
69 66 60 55 54 53 52 55 55 48 39 36 36 35 36 39 41 43 45 49 58 68 78 92 107 113 103 90 84 79 71 67 67 67 67 65 66 71 71 72 75 76 77 75 68 67 71 76 81 79 77 84 95 102 105 105 105 107 107 106 105 99 91 88 91 100 108 107 97 83 70 60 61 74 86 86 80 68 48 28 14 7 5 4 4 5 4 3
80 75 65 57 54 55 59 59 52 41 36 35 35 34 36 39 40 43 48 57 69 79 87 102 115 111 96 87 83 79 75 73 71 72 72 67 64 68 71 72 75 77 77 78 74 68 69 76 81 84 83 83 90 100 103 101 102 106 107 104 99 99 100 94 90 97 106 106 97 85 73 65 64 70 78 81 79 71 55 36 18 8 5 5 4 5 5 4
86 79 66 56 55 60 64 60 47 37 35 35 34 34 37 39 40 44 54 66 79 89 96 109 114 102 90 85 82 81 81 78 75 74 74 71 67 65 69 73 74 76 75 75 77 72 68 71 77 83 86 87 94 103 102 98 98 104 109 102 94 103 106 92 88 98 106 108 104 90 76 71 71 74 86 94 88 72 58 45 28 13 6 5 5 4 5 5
90 82 68 57 58 66 68 58 43 36 35 33 33 35 36 40 42 47 60 76 88 96 102 108 105 93 86 84 81 84 85 78 76 77 77 76 72 66 67 71 73 77 76 72 75 76 70 66 67 74 81 84 91 99 98 92 88 95 106 99 91 102 99 83 89 102 104 108 106 88 79 85 89 92 101 103 91 77 70 55 35 21 12 6 5 5 5 5
94 87 71 59 61 71 70 55 41 37 34 32 34 35 37 41 44 51 67 85 96 102 106 104 97 90 89 86 82 84 85 78 76 80 79 78 76 70 67 69 71 76 77 73 72 74 75 70 62 64 72 77 82 87 91 89 80 82 94 93 90 98 92 83 92 104 107 109 102 85 76 80 90 99 105 102 90 85 84 66 41 28 20 11 8 6 5 5
97 88 74 62 65 75 71 53 42 39 35 33 35 35 37 42 46 55 72 89 100 107 108 102 94 91 92 88 83 83 84 81 79 81 81 79 77 75 69 67 69 72 74 74 72 71 76 78 71 63 62 69 77 80 82 82 77 76 84 90 93 98 99 93 89 95 105 106 97 85 71 66 78 96 107 108 99 91 84 69 51 40 30 21 14 9 7 7
Wind_Speed
17 17 18 19 20 21 22 22 23 23 24 24 25 25 26 27 27 28 29 30 30 31 32 33 34 35 36 37 38 39 40 41 42 44 45 46 46 47 47 48 48 49 49 49 49 50 51 52 53 54 55 55 55 55 56 56 57 58 58 57 57 57 57 58 58 58 57 57 57 58 59 59 59 60 60 60 61 61 61 62 60 57 54 50 48 48 47 49
19 20 20 21 22 22 22 23 23 23 23 24 24 25 26 26 27 28 29 30 31 32 32 33 34 35 36 37 38 39 40 41 42 43 44 46 47 48 48 49 49 49 50 50 50 50 52 53 55 56 56 57 57 57 58 58 58 58 57 57 56 57 58 61 62 61 61 60 60 60 60 60 59 61 62 61 62 62 62 63 63 59 56 52 49 47 46 49
20 21 21 22 22 23 23 22 23 23 23 24 24 25 26 27 28 29 29 30 31 31 32 33 34 36 37 38 39 40 40 41 42 43 44 46 47 48 49 50 50 51 51 51 52 52 53 54 56 57 58 59 59 59 60 60 59 59 58 58 57 58 59 61 63 63 64 64 63 62 62 61 60 61 62 62 62 63 63 64 64 61 57 54 51 48 48 51
20 21 21 22 23 23 23 24 24 24 25 25 26 26 27 28 29 29 29 30 30 31 32 33 34 36 36 37 38 39 40 41 42 43 44 45 47 48 49 50 51 51 52 52 53 53 54 56 57 59 60 60 60 61 61 61 61 61 60 59 59 59 59 60 62 63 65 66 66 65 64 63 62 63 62 62 63 62 63 64 65 64 60 56 53 50 49 51
20 21 22 23 24 24 25 25 26 26 27 27 27 28 28 28 29 29 29 29 29 30 31 32 34 34 35 36 37 38 39 40 42 43 44 45 46 47 48 50 51 52 52 53 54 54 55 56 58 60 61 62 62 62 62 62 62 62 62 62 61 60 60 61 63 63 65 67 67 67 66 65 66 65 64 64 63 63 64 65 66 67 64 58 55 52 51 52
20 21 23 24 25 26 26 26 27 28 28 29 29 29 28 28 28 28 27 27 27 28 29 31 32 32 33 35 37 38 38 39 41 43 44 45 46 47 47 49 50 51 53 54 55 55 56 58 59 61 62 63 63 63 63 63 63 64 64 63 63 63 63 64 64 64 65 66 67 67 67 67 67 67 67 66 64 65 66 66 66 68 67 62 58 55 53 52
20 22 23 25 26 27 27 28 29 30 30 30 29 29 28 28 27 26 26 27 28 29 30 31 32 33 35 37 38 39 40 40 42 44 45 45 45 46 46 47 48 50 52 53 55 56 57 59 60 62 63 64 65 65 65 65 65 66 65 65 65 65 66 66 66 67 66 67 68 68 67 67 68 68 68 68 67 68 68 69 69 69 70 66 61 57 54 53
21 23 24 25 26 28 29 30 30 31 31 30 30 29 28 27 27 27 27 29 30 31 32 32 34 36 38 39 40 41 42 43 45 47 47 46 45 45 45 46 47 49 51 53 54 56 58 60 61 63 64 65 66 66 67 67 67 68 68 67 67 66 67 68 68 69 69 68 69 68 68 68 68 68 68 69 70 70 71 72 71 71 71 69 65 60 55 54
23 23 24 25 26 28 29 31 31 32 32 31 30 29 28 28 29 30 31 33 34 35 35 35 37 40 41 42 43 45 46 46 47 49 49 47 46 47 47 47 47 48 50 52 54 56 58 60 62 63 64 65 66 67 67 68 68 69 70 70 69 68 67 68 69 71 71 70 70 69 69 68 69 67 67 69 71 72 73 73 73 72 73 72 68 62 57 56
23 24 25 26 27 28 29 31 32 33 32 31 30 30 30 30 31 32 34 34 35 36 36 37 39 42 43 45 47 48 49 49 51 52 51 49 48 49 48 48 49 49 50 52 54 56 58 60 61 63 64 65 66 67 67 68 68 69 70 70 70 70 68 68 69 71 71 71 70 69 69 69 69 67 68 72 73 74 74 74 74 73 74 75 71 65 59 58
24 25 26 27 28 28 29 31 32 33 33 33 32 32 31 31 32 33 35 36 36 37 39 40 42 44 46 47 49 51 52 53 54 55 52 50 50 50 50 49 49 50 51 52 54 55 57 59 60 61 62 64 65 65 66 66 68 68 68 69 70 70 69 68 68 69 70 70 70 68 68 70 71 70 72 76 75 74 74 75 75 74 75 76 74 69 61 60
26 26 27 28 29 29 30 31 32 33 33 33 34 34 34 35 36 37 40 40 40 41 43 43 44 46 48 50 51 53 54 55 57 57 54 51 52 52 51 50 49 50 51 52 54 55 56 57 58 59 60 62 63 63 63 63 64 64 64 66 67 68 69 69 68 68 68 69 69 67 68 72 74 74 76 77 76 75 74 74 75 75 76 76 76 74 66 62
28 27 28 29 30 30 31 32 33 32 32 33 35 36 37 38 39 41 43 44 44 45 46 47 47 48 50 51 53 55 55 57 59 58 54 53 53 54 52 50 49 50 51 52 53 54 55 55 56 56 57 58 59 59 59 60 61 61 61 63 64 65 68 68 68 68 69 69 68 68 70 73 75 76 77 78 77 77 76 75 75 76 77 78 78 78 73 66
29 29 29 30 31 31 32 33 33 33 33 34 35 37 38 38 40 41 43 46 47 48 49 49 49 50 51 53 55 56 57 59 61 58 55 53 54 53 53 51 50 51 52 52 52 52 52 52 52 53 54 55 56 56 56 58 59 60 60 62 62 63 65 65 65 67 68 68 68 69 71 73 75 77 77 78 78 78 78 78 78 77 78 79 80 80 78 72
30 30 31 31 32 33 33 33 33 33 35 36 37 38 39 39 40 42 43 46 48 50 50 50 51 52 53 55 56 57 58 60 60 57 55 56 55 54 53 53 52 51 50 50 50 49 48 49 50 51 52 52 53 53 54 55 57 58 59 60 62 63 63 62 63 64 65 66 67 69 71 73 75 77 77 78 78 79 79 80 81 80 79 81 83 83 82 77
30 30 31 32 33 33 34 34 34 34 35 37 38 39 40 40 40 42 44 46 49 50 51 51 52 53 54 55 56 57 60 61 59 57 57 57 56 55 54 54 52 50 48 48 48 47 47 48 48 49 49 49 49 50 50 51 53 54 55 57 59 61 62 61 62 62 62 62 64 66 68 71 74 76 78 78 79 80 80 81 81 82 81 82 85 86 85 82
30 31 32 32 33 34 35 35 35 35 36 37 39 40 40 40 41 42 45 47 49 50 50 52 53 54 55 56 56 58 61 61 58 56 57 58 56 55 54 54 53 49 48 48 48 47 46 46 46 45 45 45 46 46 47 48 49 50 51 52 54 57 59 59 59 59 60 61 61 63 64 66 70 73 76 77 79 79 79 80 80 81 82 83 86 88 88 85
31 31 32 33 35 36 36 36 37 37 38 39 39 40 40 41 42 43 45 47 48 48 50 51 53 55 56 56 57 60 62 59 56 57 58 57 56 55 55 54 52 50 49 48 48 47 45 43 42 42 42 42 43 43 44 45 45 46 47 49 50 53 55 56 56 55 56 59 60 61 61 63 67 70 73 74 75 75 75 77 78 80 82 83 87 89 90 88
31 32 33 34 36 37 38 38 38 39 40 41 41 41 41 41 42 43 44 45 46 47 49 52 54 55 56 56 58 61 61 58 56 58 58 57 55 55 54 53 50 50 50 48 46 44 42 41 40 39 39 40 40 40 41 42 43 43 44 46 48 50 52 53 52 51 51 54 57 58 59 62 66 69 71 71 71 70 71 73 75 78 81 83 86 90 91 90
31 32 33 35 37 38 39 39 39 40 41 42 43 43 42 42 42 43 44 45 46 48 50 52 54 55 56 56 59 62 59 57 57 58 57 55 55 54 53 51 50 50 49 47 43 40 39 39 38 37 37 37 37 38 38 39 40 40 41 43 44 46 48 48 48 49 48 49 53 55 56 59 64 67 70 70 69 68 69 71 73 76 80 83 86 89 91 91
31 33 34 35 37 39 40 41 41 41 43 43 44 44 44 44 44 44 45 47 48 50 51 53 54 55 55 57 61 61 57 56 57 57 56 55 54 53 50 49 50 50 48 44 40 38 36 36 36 35 33 32 33 34 34 34 34 34 35 37 39 41 43 44 45 46 46 47 50 52 52 56 61 64 68 69 68 68 69 71 73 76 79 83 85 88 91 92
31 33 34 36 37 39 41 42 42 43 44 45 45 45 46 46 46 46 47 48 49 51 52 53 54 54 56 58 60 59 57 58 59 57 55 55 55 51 48 48 49 48 45 42 39 35 33 31 32 32 29 28 27 27 29 29 28 27 29 31 33 35 36 39 40 41 42 43 47 49 50 54 58 60 63 67 68 68 69 70 72 75 78 82 85 88 91 93
31 33 34 36 38 40 42 43 44 45 45 47 47 48 48 47 47 47 48 48 50 51 52 53 53 54 57 59 59 57 57 59 60 57 54 54 54 50 47 48 47 45 43 41 37 33 30 27 26 27 26 24 22 22 23 23 22 22 23 25 26 28 29 32 34 35 36 39 42 45 47 51 56 57 60 63 66 67 68 70 72 75 78 81 85 88 91 94
32 33 35 37 39 41 43 45 46 46 47 48 49 50 50 50 49 49 49 49 50 51 52 53 53 54 57 58 56 55 57 60 59 56 53 53 52 48 47 47 45 42 40 38 35 32 29 25 22 21 20 18 17 18 18 17 16 17 19 20 21 22 23 25 28 30 32 35 37 40 43 48 53 55 57 60 62 65 67 69 71 74 77 81 84 87 91 94
33 35 36 38 40 43 45 46 48 48 49 50 51 52 53 52 52 51 50 51 52 52 53 54 54 54 56 55 53 54 57 59 57 54 52 52 50 48 47 46 43 40 39 36 33 29 27 23 20 18 16 14 13 13 13 13 13 13 15 17 17 18 19 20 22 24 27 31 33 35 36 42 48 51 54 57 58 62 65 68 71 74 78 81 84 87 90 94
35 36 38 39 41 43 46 47 49 50 50 52 54 55 55 55 54 53 53 53 52 52 53 53 53 53 53 52 52 54 56 57 55 52 51 50 48 47 46 44 41 39 37 35 31 27 24 22 19 17 15 13 11 10 11 11 11 10 11 13 14 16 17 18 19 20 23 27 31 31 29 35 44 49 51 53 55 59 63 67 71 74 77 80 83 87 89 92
37 38 39 41 43 44 46 48 50 50 51 53 55 56 57 56 55 55 55 54 53 52 52 52 52 50 49 50 52 55 56 55 53 51 50 48 47 46 45 43 40 37 36 34 30 26 23 21 19 17 14 12 10 10 11 11 12 12 13 13 14 16 18 18 19 20 21 24 28 26 23 28 39 46 47 48 52 58 61 65 69 72 76 78 81 85 87 90
38 40 41 42 44 46 47 49 50 51 52 54 57 58 58 57 55 56 56 55 53 52 51 51 50 47 46 48 51 54 54 54 51 50 48 46 47 46 44 42 39 36 35 32 28 26 22 20 18 15 12 11 10 10 10 12 13 14 15 15 16 18 19 19 20 21 21 23 25 22 19 25 34 40 43 45 50 56 60 63 65 69 73 77 79 82 85 88
40 41 42 44 46 47 48 50 51 52 54 56 59 60 59 57 56 56 56 55 52 50 48 48 47 45 46 48 50 51 52 52 50 49 46 44 45 44 42 40 36 34 34 31 26 24 22 20 17 13 8 9 10 9 10 12 13 14 16 16 16 17 19 19 20 22 23 24 25 21 18 23 31 35 39 44 49 53 57 59 61 65 70 74 77 80 83 86
42 43 44 45 46 47 49 51 52 54 55 58 60 61 59 56 55 55 54 52 49 46 44 44 45 46 47 49 50 50 50 49 48 47 45 43 43 42 41 38 33 31 32 29 24 22 21 19 17 14 11 9 9 9 10 12 13 14 17 18 17 17 18 18 18 20 22 23 24 22 19 21 29 34 37 42 47 48 51 55 57 61 65 70 75 78 80 83
43 43 45 46 46 47 49 51 54 55 57 60 61 61 58 55 53 51 50 49 46 43 41 42 44 47 48 49 49 49 48 47 47 46 43 42 41 40 40 37 31 29 30 28 23 21 20 19 16 16 15 13 11 10 10 10 12 14 17 19 21 22 22 21 20 20 20 21 23 23 20 21 28 33 34 37 41 43 46 51 54 58 62 67 73 77 79 82
43 44 44 45 46 47 49 52 54 56 59 61 62 60 56 52 49 48 48 47 45 44 43 44 45 47 48 49 49 48 47 46 46 45 42 41 40 39 39 36 30 27 27 26 22 19 17 15 14 16 17 15 14 11 8 6 10 13 15 18 21 24 25 25 24 22 20 18 20 22 21 21 26 31 31 31 34 40 44 48 52 56 61 65 71 76 79 82
44 44 44 45 46 47 49 51 54 57 60 61 60 57 52 48 47 47 48 47 46 45 45 46 47 48 49 48 48 48 46 45 45 44 41 40 39 39 39 36 29 25 25 23 20 17 15 13 12 14 16 15 14 13 10 10 12 15 17 20 23 24 26 26 26 25 22 18 18 21 21 22 25 28 28 27 29 36 42 47 51 54 59 63 68 74 79 82
44 44 44 45 46 47 49 51 54 57 59 59 56 51 47 45 46 48 48 48 47 46 46 47 48 49 49 48 48 47 45 44 44 42 41 39 38 39 38 36 30 25 24 22 18 16 15 14 13 12 13 13 13 14 14 14 15 18 20 22 24 24 24 25 24 25 25 23 21 22 22 22 23 25 26 26 27 32 38 44 50 53 57 61 65 70 77 81
44 44 44 45 46 47 49 51 53 56 56 54 50 47 45 45 47 48 49 49 48 47 47 48 48 48 49 48 48 46 43 43 42 40 39 39 38 39 38 36 30 25 23 22 19 17 15 15 15 14 12 12 12 12 13 14 16 20 22 23 25 25 24 25 25 25 26 26 26 26 26 25 24 24 24 25 27 30 34 39 45 50 55 60 64 68 74 80
43 43 43 45 46 48 49 49 51 52 52 49 47 46 46 47 48 49 50 50 49 48 48 48 48 48 47 47 47 44 42 42 41 38 37 38 38 39 39 36 31 26 22 19 17 16 15 14 14 13 13 11 9 10 12 14 17 19 21 23 26 26 25 23 23 23 24 25 24 25 27 28 28 27 25 25 26 28 32 36 41 47 53 58 63 67 71 77
42 43 43 44 46 46 46 47 48 49 49 47 47 47 47 48 49 50 50 51 50 50 49 48 48 48 46 46 44 42 40 41 39 36 35 36 38 39 38 35 31 26 22 17 13 12 12 11 11 11 11 10 8 10 13 13 15 17 18 21 24 25 25 22 19 20 22 23 21 20 23 26 28 29 29 28 27 27 30 34 39 45 50 55 60 64 67 72
42 42 42 42 43 43 44 46 47 47 47 47 47 47 48 50 51 51 51 51 51 50 49 48 48 47 46 44 42 39 38 39 37 34 34 35 37 38 37 35 30 26 23 18 13 11 10 10 10 9 8 8 7 8 9 10 13 16 18 21 23 25 25 23 19 19 20 22 21 18 19 23 26 28 30 30 31 30 30 32 37 41 46 51 56 61 65 69
40 40 39 39 40 41 43 45 46 47 47 48 48 48 49 51 52 52 51 51 50 49 49 48 47 46 45 43 40 37 37 37 35 33 33 34 36 37 37 34 30 26 23 19 13 10 9 9 9 7 7 7 7 8 10 12 17 20 21 23 25 26 25 23 21 21 20 22 24 22 19 20 24 27 29 31 32 34 33 32 34 38 42 46 52 58 63 66
37 37 37 37 39 41 43 44 46 47 48 48 48 49 50 52 53 53 52 51 49 48 48 47 46 45 44 42 38 35 36 35 32 31 32 32 34 36 36 35 31 26 23 19 14 10 8 8 8 8 8 9 10 11 13 15 18 20 20 23 24 25 25 25 24 24 24 25 28 28 24 21 22 26 29 30 31 33 35 35 34 35 38 41 47 54 59 63
34 35 35 37 39 41 42 44 46 47 48 49 49 50 52 53 53 52 51 50 49 47 46 46 45 44 43 40 36 34 35 34 30 29 31 32 33 35 35 35 32 27 23 20 14 9 7 7 7 8 10 11 13 13 13 13 14 14 16 20 22 22 21 23 23 22 25 27 29 29 28 26 25 27 28 30 30 31 33 34 34 33 34 37 41 48 54 58
33 34 36 38 40 41 42 44 46 48 49 50 51 52 53 54 53 51 49 48 48 46 45 44 43 42 40 37 34 33 33 32 29 29 31 32 33 34 35 35 33 29 25 21 16 9 7 7 7 7 9 11 13 15 14 14 15 14 16 21 23 22 20 20 20 21 24 27 29 29 29 27 26 28 29 28 29 30 30 31 32 30 30 33 37 42 49 54
34 36 38 40 41 43 43 45 47 49 51 52 53 53 54 54 53 49 46 46 46 45 43 42 40 38 36 34 31 31 32 31 28 28 31 32 33 33 34 35 34 31 27 23 19 12 8 7 7 8 10 11 12 14 14 14 15 15 18 22 22 21 21 20 21 22 23 25 27 28 28 27 26 27 28 28 29 31 31 29 30 28 27 29 33 37 43 48
35 37 40 42 43 44 46 47 48 50 52 53 54 54 54 53 52 48 44 43 43 43 41 38 36 34 32 31 29 29 30 29 27 28 30 32 32 32 33 34 34 33 29 25 22 17 12 9 7 7 9 10 12 14 17 17 16 16 18 21 22 21 21 21 22 24 25 25 24 25 28 29 29 28 27 28 31 32 33 31 29 27 24 25 28 31 36 41
37 38 40 43 45 47 48 50 51 52 53 54 54 54 53 52 49 46 43 42 41 39 37 33 31 29 29 28 27 28 29 28 26 27 30 32 32 32 33 34 34 34 31 27 24 21 17 13 10 8 9 10 12 14 17 18 18 18 18 20 22 22 21 20 21 24 26 26 24 24 27 29 29 28 28 30 32 34 34 33 29 26 23 21 24 27 30 34
40 40 41 43 45 48 51 53 54 55 56 56 55 53 51 49 47 45 42 41 38 35 31 28 26 26 26 26 26 27 27 26 26 27 30 32 32 31 32 33 34 34 33 29 25 23 21 18 15 13 11 11 11 12 15 17 19 19 20 20 21 21 20 19 20 22 24 25 24 25 27 27 25 24 25 27 30 32 34 33 28 23 20 18 20 23 25 28
42 43 43 44 46 48 51 54 56 58 59 58 56 53 50 47 46 43 41 37 34 30 27 24 23 23 24 24 25 26 26 25 25 27 30 32 32 31 31 32 34 34 34 32 28 25 23 21 18 17 14 12 11 12 15 17 19 20 21 21 21 20 20 19 19 20 21 23 25 26 26 26 23 21 21 23 27 30 32 33 28 20 16 14 16 19 21 24
42 43 45 46 47 49 51 53 56 58 59 58 56 53 50 48 45 41 37 33 29 26 23 20 20 22 23 23 24 25 26 26 25 26 29 31 32 32 31 31 32 33 34 33 31 27 24 22 20 19 18 16 14 14 16 17 19 20 21 21 20 18 18 19 19 19 19 21 24 26 26 24 22 21 21 23 25 27 28 30 28 21 14 11 11 14 18 21
42 43 45 47 49 50 52 54 57 59 59 58 55 52 50 48 45 39 34 29 25 22 20 18 19 21 22 23 24 25 27 26 24 24 27 30 31 31 31 30 31 32 33 33 32 29 25 21 21 20 20 19 18 17 17 17 18 20 21 20 19 17 17 18 18 18 18 20 23 26 28 26 24 24 25 25 25 25 25 26 26 22 15 9 7 9 13 18
42 44 46 48 50 51 53 56 58 60 60 57 55 53 51 48 44 38 31 27 23 21 19 19 19 21 22 23 23 25 26 26 25 24 25 28 31 31 32 31 30 31 32 32 32 31 27 23 20 19 19 20 20 20 19 19 18 18 20 20 18 16 17 18 17 17 18 20 22 25 27 27 27 28 27 26 24 25 25 24 22 20 16 10 6 6 9 14
42 44 46 48 49 51 54 56 59 61 60 58 55 54 52 49 44 37 30 25 22 21 20 20 21 22 23 23 23 24 25 26 25 25 25 27 29 30 31 32 31 30 31 32 32 31 30 28 23 19 18 19 20 21 21 21 20 19 19 19 18 17 17 16 14 14 16 18 20 23 23 22 23 25 27 26 25 25 25 22 20 18 15 11 7 5 7 11
43 45 47 48 49 51 54 56 58 61 61 58 56 55 52 48 44 38 31 25 23 22 22 22 22 22 23 23 23 24 25 26 26 27 27 26 27 29 30 31 31 30 30 31 33 32 32 31 28 24 19 17 18 21 22 23 22 21 19 19 18 17 17 16 14 13 14 15 17 19 19 19 18 20 23 25 25 24 22 20 19 19 17 14 9 6 5 8
Wind_Direction
314 314 314 313 312 311 311 310 309 307 306 305 304 303 302 301 301 300 299 298 297 296 296 295 295 295 295 294 295 295 295 296 295 295 294 293 292 291 289 288 286 285 283 281 279 278 276 274 273 271 270 268 267 266 265 263 262 261 259 256 253 249 247 244 242 240 238 236 236 237 237 238 239 241 242 243 244 244 245 246 243 240 236 231 229 230 230 231
316 316 316 316 316 316 315 314 312 311 310 309 308 307 307 305 304 302 301 300 300 299 299 299 298 299 298 298 298 298 298 297 296 296 295 294 293 292 291 290 288 286 284 282 280 278 276 274 273 272 271 270 268 267 265 263 262 261 260 257 255 251 248 245 243 240 238 237 236 236 236 236 237 239 240 241 243 244 245 247 245 241 238 233 228 227 227 229
320 320 320 321 320 319 318 316 315 314 313 313 312 311 310 308 306 305 304 304 303 303 303 303 303 302 301 301 300 299 298 297 295 294 294 292 291 290 289 287 286 284 283 281 280 278 277 275 274 272 271 270 269 268 266 265 263 262 260 258 256 252 249 246 244 241 239 237 236 236 236 236 236 237 238 239 240 243 244 246 247 244 240 236 231 225 225 228
323 324 324 324 323 322 320 319 317 316 315 314 314 313 312 311 310 309 308 308 307 307 306 305 304 303 302 301 299 299 298 296 295 294 294 292 291 289 287 285 284 282 281 280 278 277 276 275 273 272 271 270 269 269 268 267 265 264 261 259 256 254 251 249 246 242 239 237 235 235 235 235 235 236 237 237 237 240 242 243 246 246 241 236 233 226 223 226
325 326 327 327 326 325 323 322 320 318 316 316 316 316 315 314 313 311 311 310 308 308 307 306 305 303 302 300 301 301 300 299 298 297 296 294 292 290 288 285 283 282 280 279 278 276 275 273 272 271 271 270 270 269 268 267 266 264 262 260 257 254 252 250 247 244 240 238 235 234 234 233 234 234 235 235 236 237 239 240 242 244 242 237 233 229 224 225
328 327 328 328 328 327 327 326 324 322 320 319 319 319 317 315 314 312 310 309 307 307 308 309 309 307 305 305 306 306 304 304 304 303 301 298 295 292 289 286 283 281 280 278 277 276 274 272 271 270 270 269 269 269 268 267 265 264 262 260 257 254 251 249 248 245 241 238 235 233 233 233 233 234 234 234 234 235 236 237 239 241 242 238 233 229 225 224
330 329 329 329 329 328 329 328 327 324 322 321 321 320 317 314 312 310 308 307 307 308 310 313 314 314 312 312 312 311 310 311 312 312 308 303 299 295 291 288 284 282 280 278 276 275 273 272 271 270 270 269 269 268 268 266 265 263 262 260 257 254 251 248 247 245 241 238 235 233 232 232 233 234 235 234 233 234 235 236 236 238 240 238 233 228 225 224
332 331 330 329 329 328 328 328 327 324 322 321 320 318 315 312 309 307 307 307 308 309 312 316 317 317 317 317 317 317 316 317 319 319 315 309 304 300 295 291 287 284 281 279 276 275 273 272 271 271 270 270 269 268 267 266 264 263 261 260 257 255 252 249 247 245 242 239 236 234 233 232 233 233 235 236 234 233 235 235 235 236 238 238 234 228 222 222
332 332 331 331 329 328 327 327 326 323 320 318 317 315 312 309 305 304 305 307 308 310 312 317 319 319 319 319 320 321 320 321 322 322 319 313 308 304 300 296 291 288 284 281 278 276 274 273 272 271 271 270 269 268 267 265 264 262 260 259 258 256 253 250 247 245 243 240 237 235 234 234 234 234 235 237 236 233 233 235 235 235 237 238 235 229 221 219
331 331 331 331 330 329 327 326 324 321 318 314 312 310 309 308 307 306 306 308 310 312 314 318 320 320 320 320 321 322 322 323 323 323 319 315 311 309 305 301 296 292 288 284 280 278 276 274 273 272 271 270 269 268 267 265 264 262 260 259 258 257 255 252 249 247 245 242 240 237 236 236 236 235 236 238 237 235 233 233 235 235 236 238 237 232 223 218
332 330 331 331 330 329 328 325 323 320 316 312 309 307 306 307 309 312 314 313 314 316 318 321 321 321 320 319 321 323 323 323 323 322 320 316 314 311 307 303 299 295 290 286 283 280 278 277 275 274 273 272 270 269 268 266 265 264 262 260 259 258 256 254 251 248 246 245 242 239 238 238 238 236 237 238 238 237 235 233 233 234 235 237 238 235 226 219
334 332 332 332 331 330 328 326 323 320 316 311 308 306 306 305 306 310 316 317 317 319 321 322 322 320 319 319 320 322 323 323 323 322 320 318 316 313 309 305 301 297 293 290 287 284 282 280 278 276 275 274 273 272 270 269 267 266 264 262 260 259 257 255 253 251 249 247 244 241 239 239 238 237 238 239 239 239 237 235 233 233 234 235 237 236 230 221
335 334 334 334 333 331 329 327 324 321 318 313 310 308 308 306 305 308 314 316 317 319 321 322 321 319 318 319 320 321 322 323 323 322 321 319 317 313 309 306 303 300 298 294 290 287 285 282 281 279 277 275 274 273 271 270 269 267 265 262 260 258 256 255 253 252 249 247 244 242 240 239 239 238 238 239 239 239 239 238 235 233 232 232 234 235 233 224
334 335 335 336 335 334 332 330 327 323 320 318 316 314 312 309 306 307 310 312 314 317 320 321 320 318 318 318 319 321 322 323 323 322 320 319 317 313 310 308 307 304 301 296 292 289 287 285 283 281 278 275 273 271 269 267 266 264 263 261 260 258 256 255 253 251 249 246 244 242 241 241 240 239 238 238 238 239 239 239 238 235 231 230 230 232 233 227
333 334 335 337 337 338 336 334 331 326 322 320 319 318 316 311 307 307 308 310 312 316 320 321 319 317 317 318 319 321 322 323 323 322 321 320 318 315 313 311 309 305 301 297 294 292 291 288 285 282 279 276 274 271 268 266 263 262 261 259 258 257 256 254 253 251 249 246 244 243 242 241 242 241 240 238 238 239 239 239 239 237 233 229 227 229 231 229
332 333 334 336 339 340 339 336 333 329 323 321 320 319 318 315 310 308 308 310 314 318 321 320 318 317 317 318 320 322 323 323 323 323 322 321 319 316 314 313 310 307 303 300 298 297 294 290 286 283 280 277 274 271 269 266 263 262 260 258 257 256 256 254 253 252 250 248 245 243 242 242 242 242 241 240 239 239 239 239 239 238 234 228 225 226 229 229
330 331 333 334 337 339 339 338 336 332 328 325 323 322 321 318 315 312 312 314 318 320 320 318 316 316 317 318 321 322 323 323 323 323 323 322 319 316 316 315 313 310 308 305 303 300 296 292 287 283 280 277 274 271 269 267 264 263 261 259 257 256 256 255 252 251 250 249 247 244 243 242 242 242 241 240 239 238 238 238 237 236 233 227 224 224 226 228
328 329 331 332 334 336 337 337 337 336 333 331 328 326 324 321 319 317 316 318 319 319 318 317 317 317 318 319 321 323 323 324 324 325 324 322 319 318 319 318 315 313 311 308 306 302 297 292 288 284 280 277 274 272 270 267 265 264 262 260 258 257 256 256 254 251 250 249 248 245 243 242 242 242 241 239 238 236 235 235 234 233 231 226 222 222 224 226
326 327 329 330 331 334 335 335 336 336 335 334 332 329 327 324 322 320 320 320 319 319 319 318 317 318 318 320 322 323 324 325 326 326 325 322 320 321 322 319 316 314 312 310 307 302 297 293 288 285 281 279 276 273 270 268 266 264 262 260 259 257 256 257 256 254 250 249 249 247 245 244 243 243 241 239 237 235 233 232 232 231 230 226 221 220 222 224
325 325 327 328 330 332 333 334 334 335 336 335 333 332 329 327 324 323 322 321 321 320 319 318 317 318 319 321 323 324 325 326 327 327 324 322 321 324 323 320 317 315 314 311 307 302 298 295 291 288 285 282 279 275 272 269 267 265 263 262 260 259 259 258 258 257 253 250 249 248 245 243 243 242 242 240 237 234 232 230 230 230 229 226 221 219 220 222
323 324 325 327 329 331 332 332 332 333 335 335 334 333 331 329 326 324 322 321 321 320 319 318 318 319 320 322 324 324 326 326 327 327 325 323 324 325 324 320 319 317 315 312 307 304 302 299 296 292 289 285 282 279 277 273 270 269 266 264 263 262 261 259 256 255 254 252 250 248 245 244 242 241 240 239 236 233 231 229 227 228 228 227 222 217 218 221
322 322 323 325 327 329 330 331 331 332 333 334 333 332 331 329 327 325 323 322 320 319 319 318 319 321 322 324 324 325 326 327 327 328 326 324 325 326 324 321 321 320 317 312 310 309 307 304 299 297 294 289 286 283 280 278 275 272 268 265 263 263 262 262 259 256 254 252 251 248 245 245 244 241 239 239 236 233 231 228 226 226 227 226 223 218 216 218
321 320 321 324 326 328 329 330 331 331 331 332 332 331 330 329 327 326 324 323 321 320 320 320 321 322 323 324 325 326 327 327 328 328 327 326 326 327 325 323 323 322 318 314 315 316 313 308 303 301 300 296 292 286 281 280 278 274 270 266 264 264 263 263 262 259 255 252 250 249 246 245 244 242 240 238 237 234 230 228 226 225 225 226 224 220 216 216
319 319 320 322 325 326 328 329 330 330 329 330 331 330 330 329 327 326 326 325 323 322 321 321 322 324 324 324 325 328 328 327 328 328 327 327 327 327 326 326 326 324 319 318 321 322 317 313 308 303 300 298 292 285 283 283 280 276 273 270 266 264 264 263 263 260 256 252 249 248 248 247 245 242 241 239 236 235 231 228 226 225 224 225 225 221 217 216
317 318 320 321 323 325 326 328 329 329 328 329 330 330 330 328 327 327 327 326 325 323 322 322 323 325 324 324 326 328 327 327 328 327 328 329 327 327 327 328 330 326 321 322 326 325 320 318 315 311 307 303 294 286 283 278 271 266 271 276 274 271 268 264 263 261 257 253 249 245 247 250 247 242 240 239 237 235 233 229 226 225 224 224 224 222 218 216
315 317 319 320 321 322 325 327 328 328 327 327 329 329 329 327 326 326 326 326 325 324 323 323 324 326 325 325 327 328 327 327 327 327 330 330 328 328 329 331 333 328 324 326 329 328 323 323 327 329 329 324 316 309 301 295 293 290 292 297 296 291 285 277 270 266 261 257 251 244 241 247 250 245 239 237 238 236 234 230 227 225 224 224 224 223 220 217
313 314 318 318 319 320 323 325 326 326 326 326 327 328 327 326 325 325 325 325 325 324 324 324 324 326 326 327 328 328 328 327 327 329 332 331 329 329 331 335 336 329 326 330 332 330 328 329 336 342 341 333 326 323 319 320 324 323 320 317 311 303 295 290 284 277 271 267 259 250 242 244 248 247 241 236 235 236 234 231 228 225 224 224 224 224 222 218
311 312 315 316 317 319 321 323 324 325 325 326 327 327 327 325 325 325 325 325 325 325 325 324 325 327 328 328 329 328 328 327 327 331 334 332 329 331 334 338 337 330 329 334 334 331 331 335 341 347 343 330 327 332 334 334 334 331 327 323 317 308 300 298 295 291 287 282 274 264 255 251 249 247 244 239 235 235 234 232 229 227 225 224 224 223 222 219
310 311 313 315 318 319 320 321 323 325 325 326 327 327 326 325 325 327 326 327 327 326 325 324 325 328 329 329 329 329 329 327 328 333 335 333 330 332 337 341 338 331 331 336 334 330 333 339 343 345 341 333 335 346 347 338 334 329 322 317 312 305 301 302 303 301 300 297 292 283 271 263 257 248 244 242 237 234 235 233 231 228 226 225 224 224 223 221
311 311 313 315 318 319 319 321 323 325 326 327 327 326 326 325 327 329 329 330 331 329 327 326 326 328 330 330 330 330 329 327 330 335 335 333 331 334 339 342 340 334 332 335 334 332 336 342 342 338 337 343 347 355 350 337 333 330 324 320 314 307 306 307 306 304 305 305 301 294 283 271 263 252 243 243 241 236 235 235 233 231 228 226 225 224 223 221
310 311 313 315 317 318 319 321 323 325 327 326 326 325 326 327 329 331 333 335 336 333 331 329 329 329 330 331 330 331 330 329 332 336 335 333 333 336 341 343 343 337 333 335 337 337 340 342 340 332 332 340 349 359 358 349 346 339 334 332 329 326 325 322 318 314 313 312 306 298 289 277 268 259 248 244 243 240 235 233 232 231 228 225 224 224 222 221
310 311 313 314 316 317 319 322 324 326 326 326 325 325 326 329 331 332 334 337 337 334 333 332 330 329 331 331 331 332 331 331 335 337 335 333 334 339 343 345 345 341 336 337 338 340 340 339 334 326 327 337 347 355 1 1 355 346 341 342 340 338 334 331 330 326 323 320 313 306 297 284 274 269 260 249 243 239 236 232 230 230 229 226 223 223 222 221
311 312 313 313 315 317 320 323 325 325 325 325 325 325 328 330 331 332 334 336 336 334 333 333 331 330 332 332 333 333 332 334 337 337 334 334 337 342 344 346 347 345 341 339 339 339 337 335 331 323 325 335 347 356 359 355 353 351 350 350 348 345 341 338 338 333 328 328 324 317 307 293 283 277 271 259 247 240 237 233 229 227 228 227 224 222 222 220
313 313 313 314 315 318 321 323 325 325 324 324 325 326 330 332 331 331 333 334 334 333 333 333 332 331 332 333 334 334 333 335 338 337 334 335 340 344 345 346 347 348 345 341 340 341 336 334 334 329 327 338 355 4 0 351 350 354 354 351 350 348 346 342 341 338 333 334 335 327 318 307 295 287 280 269 255 245 239 235 231 228 227 227 226 223 222 221
313 313 313 314 316 319 322 323 324 325 324 325 327 330 333 333 331 331 332 332 333 333 333 333 332 332 332 333 334 334 333 336 338 336 334 337 343 346 346 347 347 351 351 344 340 342 339 335 336 334 336 348 2 1 350 346 352 354 349 347 348 350 352 347 343 342 337 338 340 333 325 319 309 301 291 278 265 253 245 239 236 232 228 226 225 224 223 222
313 313 314 315 317 320 322 324 326 326 326 328 331 333 334 332 331 331 332 331 332 333 333 333 332 332 333 334 334 333 333 336 338 337 336 340 345 347 347 348 347 351 355 348 340 338 336 333 332 331 340 354 359 348 344 349 352 346 340 343 345 349 355 352 343 340 336 336 340 333 326 324 319 314 306 293 277 263 252 244 237 234 230 228 226 225 223 223
311 312 314 316 318 321 324 327 328 328 329 331 334 334 333 331 331 332 333 332 331 333 333 332 331 332 333 333 332 332 333 336 338 337 339 343 347 348 348 349 347 348 354 353 343 334 330 333 333 330 340 352 350 342 343 344 342 337 336 341 343 346 355 355 345 338 332 330 333 328 322 323 322 318 315 308 295 278 263 252 243 236 232 230 228 227 225 224
311 313 315 318 322 326 329 330 329 329 331 333 334 334 332 331 332 333 333 332 331 331 332 331 331 331 332 331 331 332 334 337 338 338 341 346 349 348 349 350 348 347 351 353 348 339 334 337 338 336 342 349 346 337 332 330 332 337 340 340 341 347 353 353 346 339 331 326 327 325 316 315 318 318 315 313 306 295 281 264 253 243 236 231 229 227 226 224
314 317 321 325 328 331 332 331 330 331 333 334 334 333 333 332 332 333 333 331 330 330 330 330 329 329 330 330 331 333 335 338 338 339 344 349 350 349 350 351 349 347 349 352 349 341 338 338 340 343 344 346 345 338 340 346 343 343 342 340 341 346 347 346 345 342 338 331 330 331 322 310 310 312 310 309 306 301 293 279 264 252 242 234 231 229 227 225
322 325 329 333 335 335 333 331 331 333 335 336 335 335 334 332 332 332 331 329 328 328 328 328 328 327 328 329 331 334 336 338 339 341 346 351 351 351 351 352 351 348 349 351 348 339 335 334 338 342 340 343 346 344 352 355 344 338 338 335 338 343 342 344 348 348 343 336 331 333 331 320 311 309 308 306 302 297 294 288 273 260 250 240 232 230 229 227
332 334 337 338 338 336 335 334 334 335 336 337 337 336 334 332 330 331 330 327 326 326 326 326 326 326 326 329 332 334 337 338 339 343 348 352 353 353 353 354 353 349 348 350 348 335 325 328 333 334 330 332 337 339 346 343 330 327 331 330 335 343 343 343 347 344 337 331 329 330 332 330 324 319 316 313 308 299 293 289 280 266 256 247 236 231 230 228
339 339 340 341 340 339 339 338 337 337 338 338 338 337 334 330 329 330 329 326 324 324 324 324 325 324 325 329 332 334 337 338 339 346 351 353 355 355 355 355 355 351 347 347 347 337 315 315 323 326 325 328 334 335 331 323 321 328 331 330 336 344 343 338 335 333 330 329 331 334 335 333 327 322 321 321 320 313 302 292 284 271 259 252 242 233 231 229
342 341 341 342 342 343 343 341 340 339 339 339 338 336 333 330 328 329 328 324 322 322 323 323 323 323 325 328 331 335 338 339 341 349 354 354 355 356 357 357 357 354 348 344 344 339 317 305 309 316 320 323 328 331 327 324 328 330 326 327 333 338 337 334 331 332 333 334 336 337 335 332 324 319 322 328 331 327 318 305 291 277 263 255 248 238 232 231
343 342 341 341 343 344 343 343 343 341 339 339 338 336 333 330 328 328 326 323 321 321 321 322 323 323 323 326 332 336 339 340 342 350 356 356 355 357 358 359 359 357 351 344 341 338 324 306 298 296 302 312 323 331 334 336 335 327 319 321 326 330 333 335 337 337 337 339 342 338 332 330 327 326 332 340 340 336 330 321 303 286 270 258 253 245 236 232
341 342 341 340 341 342 342 344 344 342 340 339 338 336 334 330 328 327 326 322 321 320 321 322 323 322 323 326 333 339 340 341 343 350 357 356 355 357 359 0 1 0 356 347 340 336 326 312 301 294 302 322 335 334 330 329 325 319 314 316 320 325 330 335 338 338 336 339 341 333 329 332 337 342 348 350 346 341 336 331 316 296 279 263 255 250 241 234
339 339 340 340 339 339 341 344 344 342 341 340 338 337 335 332 329 329 326 323 322 322 322 323 323 322 323 327 336 342 342 341 345 352 356 356 355 356 358 1 2 2 0 353 343 336 328 318 307 302 309 324 331 325 315 311 309 306 306 309 314 320 325 330 336 336 335 336 334 328 327 333 343 353 357 356 351 344 339 335 325 304 286 271 258 251 246 238
337 337 338 339 338 338 341 343 343 342 342 340 339 338 337 334 333 331 328 325 325 324 325 325 323 322 324 329 337 343 344 344 347 353 355 355 354 355 357 1 3 3 2 359 350 340 330 322 311 303 303 309 313 309 305 303 302 300 302 305 309 316 321 325 332 335 335 333 330 330 333 336 344 355 359 358 356 350 343 339 333 316 293 279 265 254 248 241
336 336 336 336 337 339 341 343 343 343 343 341 339 340 340 338 337 335 331 330 329 327 328 327 323 321 325 332 338 344 348 347 347 352 353 353 353 354 355 359 3 3 2 1 358 349 337 326 315 304 298 297 298 297 296 298 300 299 300 302 306 314 319 321 327 332 337 337 335 338 342 344 349 357 1 3 2 358 352 345 339 329 309 285 269 257 249 243
335 335 335 336 337 340 342 342 343 344 344 342 341 343 343 341 340 339 337 335 333 330 329 326 322 322 327 335 340 346 350 348 345 348 350 349 350 352 354 357 1 2 1 0 0 358 348 333 319 308 298 292 289 288 288 290 293 295 297 299 305 310 311 314 323 334 343 348 347 345 345 350 359 5 7 8 6 4 3 356 346 338 325 300 272 256 249 244
334 334 335 336 338 340 342 343 345 346 345 343 344 346 346 344 343 344 343 341 337 332 329 326 324 325 331 338 343 346 349 347 344 345 347 346 346 349 352 355 357 360 0 359 359 0 358 350 334 317 302 291 283 280 280 282 285 290 294 297 300 300 300 310 328 342 350 351 348 345 347 357 9 13 10 7 7 9 10 3 353 347 339 322 289 254 244 243
334 334 335 336 338 340 342 343 345 347 346 346 347 348 348 346 346 347 348 347 341 334 330 329 328 329 333 338 342 345 347 348 347 346 346 344 344 346 349 352 354 356 357 358 358 359 360 359 353 338 318 298 284 277 275 277 281 285 290 294 295 294 297 311 329 340 341 342 341 341 345 355 8 14 10 4 6 11 10 4 0 360 355 345 323 280 249 240
334 334 335 336 339 341 342 344 346 347 347 348 349 350 349 348 348 349 351 350 344 338 334 331 329 330 334 337 339 343 347 349 349 347 345 344 343 343 345 348 351 353 355 356 357 357 357 357 357 353 340 317 294 280 275 276 279 283 286 289 292 293 297 307 319 325 327 333 334 332 334 343 359 13 13 8 8 9 8 6 10 15 14 8 355 324 279 251